Location: Hochstatterhof
(48.7256°N, 10.3487°E)
Time: 03:10:26
(UTC+00:00)

CZ-2C R/B - Pass Details

Date: 26 September 2023
Orbit: 783 x 869 km, 98.3° (Epoch: 04 December)

Event Time Altitude Azimuth Distance (km) Brightness Sun altitude
Exits shadow 03:08:48 24° 301° (WNW) 1,612 3.8 -20.3°
Drops below altitude 10° 03:11:30 10° 327° (NNW) 2,377 4.9 -19.9°
Sets 03:14:09 0° 338° (NNW) 3,324 5.8 -19.5°
